Regional Weather Roundup
Issued by NWS Northern Indiana

Home | Current Version | Previous Version | Text Only | Print | Product List | Glossary Off
Versions: 1 2 3 4 5 6 7 8 9 10 11 12 13 14 15 16 17 18 19 20 21 22 23 24 25 26 27 28 29 30 31 32 33 34 35 36 37 38 39 40 41 42 43 44 45 46 47 48 49 50

000
ASUS43 KIWX 060810
RWRIWX

KIWX WEATHER ROUNDUP
NATIONAL WEATHER SERVICE NORTHERN INDIANA
400 AM EDT MON JUL 06 2015

NOTE: "FAIR" INDICATES FEW OR NO CLOUDS BELOW 12,000 FEET WITH NO
SIGNIFICANT WEATHER AND/OR OBSTRUCTIONS TO VISIBILITY.

* THESE STATIONS ARE NOT UNDER NWS QUALITY CONTROL. THEY ALSO MAY NOT
  REPORT WEATHER SUCH AS PRECIPITATION OR FOG.

INZ001>027-060900-
NORTHERN INDIANA

CITY           SKY/WX    TMP DP  RH WIND       PRES   REMARKS
GARY*          CLEAR    N/A N/A N/A SE3       30.02S
VALPARAISO     CLEAR     66  62  87 S5        30.05R
MICHIGAN CITY* CLEAR     68  61  77 S6        30.04R
LAPORTE*       CLEAR     64  64 100 CALM      30.05R
KNOX*          CLEAR     63  63 100 S6        30.03S
SOUTH BEND     CLEAR     65  60  84 CALM      30.05S
GOSHEN         CLEAR     61  58  90 CALM      30.05S
MONTICELLO*    CLEAR     67  64  90 S3        30.04R
LOGANSPORT*    CLEAR     61  57  88 CALM      30.06S
ROCHESTER*     CLEAR     70  63  78 SW6       30.05S
WARSAW*          N/A     61  59  94 CALM      30.06R FOG
ANGOLA*          N/A     61  59  94 CALM      30.06S
FORT WAYNE     CLEAR     63  58  83 CALM      30.06S
HUNTINGTON*    CLEAR     62  60  92 CALM      30.05R
PERU/GRISSOM   CLEAR     65  61  88 S5        30.05R
MARION*        CLEAR     61  60  96 CALM      30.06R FOG

$$
INZ028>050-060900-
CENTRAL INDIANA

CITY           SKY/WX    TMP DP  RH WIND       PRES   REMARKS
LAFAYETTE      CLEAR     65  62  90 CALM      30.04R
KOKOMO*        CLEAR     64  59  82 CALM      30.05R
MUNCIE*        CLEAR     61  59  93 MISG      30.06S
INDIANAPOLIS   CLEAR     66  62  87 CALM      30.03S

$$
MIZ043>046-050>051-056>058-064>065-071>073-077>080-060900-
SOUTHWEST LOWER MICHIGAN

CITY           SKY/WX    TMP DP  RH WIND       PRES   REMARKS
BATTLE CREEK   CLEAR     65  59  81 CALM      30.07S
BENTON HARBOR  CLEAR     67  61  81 S5        30.04R
COLDWATER*     CLEAR     60  58  94 CALM      30.06S
HILLSDALE*     CLEAR     60  60  99 CALM      30.08R
HOLLAND        CLEAR     65  61  87 SE3       30.05R
GRAND RAPIDS   CLEAR     64  59  83 S5        30.06R
KALAMAZOO      CLEAR     67  59  75 SE3       30.06R
STURGIS*       CLEAR     61  59  94 CALM      30.05S
THREE RIVERS*  FAIR      61  58  90 CALM      30.06S

$$
OHZ001>008-015>018-024>025-060900-
NORTHWEST OHIO

CITY           SKY/WX    TMP DP  RH WIND       PRES   REMARKS
DEFIANCE       CLEAR     61  59  93 CALM      30.06S FOG
FINDLAY        CLEAR     63  59  87 CALM      30.04F FOG
TOLEDO EXPRESS CLEAR     61  58  90 CALM      30.06R
TOLEDO METCALF CLEAR     63  59  87 CALM      30.06S
LIMA           CLEAR     58  57  97 CALM      30.06S

$$
AND FOR LAKE MICHIGAN COASTAL AND OPEN LAKE BUOY OBSERVATIONS

STATION/POSITION TEMP    WIND        PRES    VSBY  WAVE
                 AIR SEA DIR/SP/G                  HT/PER
                 (F)     (DEG/KT/KT) (MB)    (MI)  (FT/S)
CALUMET HARBOR    71     170/  6/  8   N/A
MICHIGAN CITY     71     140/ 10/ 14   N/A
BURNS HARBOR      71     180/  6/ 11 1016.9F
SAINT JOSEPH      69     170/  3/  6 1018.3R
4 MI NW BRIDGMAN  68 65  220/  8/ 10   N/A           1
MICHIGAN CITY     68 66  180/  8/ 10   N/A           1

$$
&&


USA.gov is the U.S. government's official web portal to all federal, state and local government web resources and services.